RH
30 30 30 32 42 64 64 51 49 52 57 96 97 98 98 91 94 99 100 46 93 71 56 82 74 96 98 94 86 77 78 78 77 75 76 66 59 55
32 42 63 60 49 56 60 60 56 51 59 98 88 99 97 98 99 92 98 74 54 50 40 75 87 94 88 78 85 89 83 80 79 76 73 74 69 67
40 63 85 96 99 100 94 80 78 56 67 98 100 100 100 95 98 87 62 61 57 53 81 91 97 93 96 95 85 88 86 89 84 79 71 61 51 41
47 51 64 100 100 96 90 84 71 64 60 65 75 86 67 62 52 54 59 65 85 86 96 91 87 94 98 96 100 95 87 67 50 34 25 22 20 19
38 39 45 64 97 99 90 85 100 71 68 61 60 59 63 68 70 65 72 88 95 88 89 98 95 99 93 74 49 29 23 19 16 13 9 8 7 6
78 56 54 74 67 67 91 92 93 99 95 83 84 85 80 76 80 90 100 98 100 98 95 85 60 38 30 22 15 11 9 7 6 6 6 4 4 3
52 57 64 58 91 65 80 93 100 95 99 99 97 99 98 99 100 100 100 96 79 67 53 30 20 16 11 10 10 9 8 7 6 4 4 3 6 15
70 68 94 92 98 97 100 100 100 96 96 99 100 100 100 98 87 57 39 31 22 21 19 12 13 9 9 6 5 5 4 4 4 5 11 18 25 28
54 75 96 96 97 90 86 97 99 100 100 100 99 84 50 38 33 24 19 14 12 11 9 6 5 5 6 7 7 7 8 11 16 18 24 29 43 51
40 68 86 92 95 97 100 100 100 93 65 46 42 38 27 17 12 9 7 6 5 5 5 7 8 9 11 13 14 20 21 20 26 34 42 51 60 61
78 88 90 93 96 92 76 57 45 45 45 39 23 16 12 11 8 6 6 8 9 8 8 8 10 14 37 37 29 22 22 25 38 45 55 55 59 59
67 64 57 52 49 45 45 49 48 41 30 20 15 12 12 8 7 10 9 9 12 20 17 34 38 32 48 45 32 30 31 37 45 47 60 63 56 52
38 39 39 40 44 47 48 45 38 30 16 14 12 12 6 8 12 11 10 16 24 29 32 38 48 43 38 38 44 41 47 59 71 74 71 61 56 54
35 35 37 38 37 40 41 40 34 25 14 13 13 8 8 13 13 12 12 19 28 31 37 40 45 42 42 48 59 63 67 78 72 77 75 72 65 53
34 33 35 38 40 44 44 40 30 22 18 11 10 9 12 16 16 14 14 16 34 44 42 43 41 45 52 53 58 60 62 87 81 76 74 76 74 57
37 38 38 40 43 46 46 43 28 24 16 13 9 9 14 20 21 17 15 19 25 35 52 56 49 48 44 46 50 51 60 73 80 83 85 89 88 78
39 38 41 44 46 50 50 47 31 21 18 17 15 11 17 25 27 26 20 23 29 30 31 29 28 21 20 30 34 40 71 81 81 86 89 96 98 93
36 38 40 44 45 47 53 48 20 20 21 23 15 15 23 30 34 34 33 26 32 31 28 23 18 18 18 19 22 36 80 81 88 92 91 92 100 84
40 42 44 43 42 50 60 56 31 20 21 19 16 18 28 35 36 36 38 36 31 34 31 27 21 17 16 18 19 44 73 85 92 99 90 88 94 93
46 46 46 43 42 51 65 66 48 28 18 18 17 18 30 40 39 36 35 36 35 32 34 34 26 21 15 16 16 24 65 96 86 98 98 94 88 95
50 50 47 45 49 57 71 74 63 56 45 31 17 18 37 45 42 40 41 40 35 33 29 30 28 24 18 16 17 18 68 92 92 93 95 91 100 100
56 55 49 47 55 60 73 80 78 74 60 30 21 20 46 51 47 45 45 43 38 35 32 28 27 26 24 21 19 17 59 100 100 100 99 89 86 97
60 54 46 49 64 65 72 75 75 78 68 52 38 25 44 55 54 53 51 51 45 38 33 31 26 22 24 21 19 16 49 94 100 100 100 98 96 100
Wind_Speed
64 64 63 63 61 61 60 60 57 58 62 67 63 58 52 59 57 46 52 55 57 57 57 54 55 51 50 53 49 52 56 58 56 57 57 58 62 66
66 65 62 61 61 61 60 59 58 59 64 50 62 64 58 47 45 45 53 60 63 61 59 57 56 58 57 55 55 55 56 55 58 59 63 67 69 70
61 62 62 60 59 57 58 58 59 61 62 55 54 57 59 65 63 67 65 62 60 60 57 54 57 60 61 56 54 55 57 61 64 67 68 69 70 70
55 54 54 55 54 54 53 55 56 60 65 68 70 71 68 72 70 65 62 60 56 56 58 61 61 57 56 59 61 62 61 63 64 66 67 69 71 73
50 48 50 50 53 53 52 51 54 55 59 60 61 61 61 61 61 59 61 58 59 60 60 59 58 57 58 59 60 61 62 65 67 70 72 74 77 81
47 48 49 42 44 46 45 47 50 54 56 54 54 54 53 54 54 56 57 59 58 58 59 58 56 58 60 62 64 67 69 72 74 76 79 82 84 83
27 30 35 30 31 33 40 38 44 48 48 42 48 47 49 50 52 52 53 53 53 54 56 60 60 63 67 70 73 75 76 79 81 81 76 65 51 43
29 17 20 22 29 36 34 30 37 39 40 46 45 46 50 52 48 49 52 54 56 60 61 68 67 72 75 77 76 76 74 67 56 46 36 34 38 41
23 23 27 28 28 28 28 35 38 38 39 41 42 42 43 46 49 52 56 59 63 65 65 69 70 68 66 58 52 47 42 37 33 33 36 37 38 40
23 22 24 24 27 30 33 34 33 34 35 36 39 42 45 49 53 57 61 64 66 65 60 50 48 42 42 43 39 34 33 32 35 35 35 38 39 40
21 24 23 24 25 28 30 30 30 32 35 36 39 44 48 53 58 59 55 50 48 49 46 42 42 36 36 37 35 33 31 35 34 34 37 39 39 39
24 26 27 27 27 27 28 31 33 35 36 39 43 47 53 57 53 47 44 43 41 38 34 29 34 30 28 34 33 33 35 35 35 36 40 41 40 40
25 26 27 27 28 30 32 34 36 36 38 42 46 50 54 50 43 40 40 38 35 36 32 31 32 31 29 28 33 35 33 35 36 39 40 38 37 35
26 27 29 31 33 34 35 37 37 38 39 43 47 50 52 44 40 39 39 38 34 32 35 30 25 25 24 26 29 32 33 35 35 36 35 35 34 30
30 31 33 34 36 36 37 38 38 40 42 43 46 49 46 40 38 38 38 38 36 33 33 29 26 26 27 28 28 29 28 33 36 34 34 34 33 33
33 34 35 36 37 38 39 38 39 41 42 42 44 46 42 41 38 38 37 36 35 34 34 31 29 29 30 30 29 29 31 30 31 33 33 35 35 37
34 35 36 37 38 39 39 38 39 40 41 41 44 44 40 39 38 36 35 34 33 31 31 30 31 32 33 31 30 31 29 31 32 35 35 31 35 35
36 37 38 39 39 40 39 38 39 40 41 42 41 40 38 37 37 36 34 32 30 30 28 28 28 29 29 33 34 30 32 34 36 37 36 29 29 30
37 38 38 38 39 40 39 38 39 40 41 38 38 39 38 36 35 34 33 32 31 29 30 30 30 30 28 27 34 38 32 33 34 33 29 24 19 22
38 38 38 39 40 40 40 39 39 39 39 39 40 40 39 36 35 35 35 34 32 30 31 32 32 31 31 29 27 34 42 37 37 29 25 21 14 18
38 38 38 40 42 41 39 39 38 39 38 40 41 43 41 37 35 37 36 34 32 31 30 32 33 33 33 33 34 35 38 42 41 32 22 18 20 25
40 39 40 43 43 41 39 39 40 40 40 39 43 45 39 36 35 36 34 33 33 32 30 31 32 33 34 34 36 34 33 37 40 37 31 19 18 20
39 40 42 43 42 40 39 39 42 42 43 43 45 46 38 35 34 34 32 33 33 30 30 30 31 32 34 35 38 38 35 36 34 30 33 32 27 26
Wind_Direction
278 276 275 274 272 271 272 273 275 277 278 278 290 286 279 283 278 276 285 286 292 289 285 290 289 286 276 288 284 277 277 275 273 275 272 272 273 275
277 274 272 270 268 268 269 272 272 276 275 283 279 282 285 281 279 282 282 294 291 289 290 287 284 279 283 285 278 275 275 275 275 275 277 279 279 278
283 280 276 274 274 273 271 268 266 267 266 274 275 277 277 273 282 286 293 290 289 288 284 286 284 284 284 279 277 278 279 279 280 280 279 277 276 276
284 283 281 274 271 270 273 273 271 269 269 270 277 279 281 284 287 285 288 289 286 284 284 289 287 284 283 283 282 282 282 280 280 280 279 279 278 277
279 279 280 275 268 266 266 267 271 272 275 278 281 284 287 287 288 288 288 286 288 288 286 285 284 285 285 285 284 284 283 283 282 281 282 282 280 279
282 276 275 274 274 270 271 278 277 276 275 274 278 281 284 286 286 287 288 289 287 287 287 289 291 288 287 287 286 285 285 285 284 284 283 282 281 279
302 291 282 281 286 273 269 275 284 285 283 280 282 283 286 288 288 289 290 294 296 295 292 289 290 290 289 288 287 286 286 286 285 284 284 282 278 272
297 294 297 289 269 283 277 280 287 289 284 286 286 290 290 290 300 299 296 295 295 295 296 293 292 290 288 288 288 288 287 287 287 286 282 278 279 280
327 300 273 291 292 294 284 289 289 294 293 292 293 296 298 297 298 300 298 296 294 294 294 292 291 291 290 289 289 291 294 293 290 288 286 285 284 283
309 305 300 297 294 293 292 291 295 298 300 300 300 302 303 304 303 302 301 299 297 295 295 296 295 294 293 291 292 292 291 292 294 292 291 289 290 289
307 309 311 309 303 299 300 301 301 301 302 305 307 309 309 309 308 307 304 302 302 301 302 297 293 293 290 291 292 292 293 296 296 296 299 298 295 290
307 307 307 305 305 305 303 304 306 309 310 310 310 311 313 315 314 309 309 310 308 306 305 301 299 296 294 294 295 297 299 301 301 299 298 298 296 294
308 306 307 306 306 308 311 312 312 312 311 312 314 319 322 318 313 313 319 316 308 309 308 304 300 298 296 289 293 296 299 299 299 299 300 296 292 290
310 311 312 312 312 313 314 314 314 313 314 317 320 325 325 317 315 318 323 322 311 307 311 311 306 301 297 294 292 293 296 300 300 301 301 298 294 290
314 312 313 313 314 313 313 314 313 314 315 318 323 327 324 317 314 316 320 325 321 316 315 313 312 310 307 299 293 294 301 303 304 306 303 296 291 286
315 314 314 313 311 312 314 313 312 314 317 321 324 327 322 317 316 316 316 322 322 319 318 318 316 315 311 304 303 303 308 306 302 303 302 297 291 286
314 314 314 313 313 313 314 313 313 315 318 324 328 328 321 317 315 314 312 316 321 318 316 320 321 320 317 311 307 307 311 310 312 309 305 302 297 294
316 316 315 315 315 315 314 313 312 315 319 324 327 326 320 316 313 312 311 309 313 316 315 321 325 329 326 320 310 309 318 318 319 316 311 310 302 301
317 316 315 316 317 315 314 313 313 314 318 321 323 322 316 311 309 310 310 307 304 308 311 315 320 327 330 333 323 317 320 318 322 320 313 308 295 294
317 316 316 317 317 315 314 314 315 315 317 318 318 316 312 309 309 310 310 307 303 299 304 310 315 323 328 332 330 320 319 327 327 324 313 309 298 295
316 316 318 319 318 316 312 313 313 317 317 316 313 310 310 308 310 313 310 307 302 298 297 304 310 317 324 335 335 327 323 324 327 326 314 293 298 303
317 317 319 318 317 317 314 313 313 314 316 315 312 307 306 306 310 313 311 311 307 301 298 299 304 311 317 328 331 328 323 324 324 322 315 300 293 299
317 318 318 317 316 317 315 313 315 316 317 315 311 310 304 301 307 315 314 315 313 306 299 299 301 308 314 320 327 326 323 326 327 320 310 308 311 316